Regional Weather Roundup
Issued by NWS

Home | Current Version | Previous Version | Text Only | Print | Product List | Glossary On
Versions: 1 2 3 4 5 6 7 8 9 10 11 12 13 14 15 16 17 18 19 20 21 22 23 24 25 26 27 28 29 30 31 32 33 34 35 36 37 38 39 40 41 42 43 44 45 46 47 48 49 50
000
ASUS42 KFFC 300003
RWRGA
WEATHER ROUNDUP FOR GEORGIA
NATIONAL WEATHER SERVICE PEACHTREE CITY GA
800 PM EDT SUN MAR 29 2015

NOTE: "FAIR" INDICATES FEW OR NO CLOUDS BELOW 12,000 FEET WITH NO
SIGNIFICANT WEATHER AND/OR OBSTRUCTIONS TO VISIBILITY.

* = USE WITH CAUTION. THE STATIONS MARKED WITH AN ASTERISK MAY NOT
REPORT WEATHER SUCH AS PRECIPITATION, FOG, OR THUNDER AND ARE NOT
QUALITY CONTROLLED BY NWS.

THE REMARK "TC" DENOTES TEMPERATURE READING IN DEGREES CELSIUS.

GAZ001>058-300100-
NORTH GEORGIA

CITY           SKY/WX    TMP DP  RH WIND       PRES   REMARKS
ATLANTA        MOCLDY    59  24  26 S7        30.23F
6HR MIN TEMP:  54; 6HR MAX TEMP:  62;

ATHENS         CLEAR     53  20  27 S3        30.26S
6HR MIN TEMP:  53; 6HR MAX TEMP:  62;

CHAMBLEE       CLOUDY    57  24  28 S8        30.23S
6HR MIN TEMP:  53; 6HR MAX TEMP:  60;

PEACHTREE CITY CLOUDY    60  27  28 S5        30.24F
6HR MIN TEMP:  56; 6HR MAX TEMP:  63;

ROME           CLOUDY    60  30  32 S7        30.19S
6HR MIN TEMP:  55; 6HR MAX TEMP:  63;

WEST ATLANTA   CLOUDY    60  24  25 S7        30.23S
6HR MIN TEMP:  53; 6HR MAX TEMP:  61;

GAINESVILLE    CLOUDY    55  18  23 S3        30.25S
6HR MIN TEMP:  50; 6HR MAX TEMP:  58;

CARTERSVILLE   CLOUDY    58  29  33 S5        30.22S
6HR MIN TEMP:  54; 6HR MAX TEMP:  63;



CITY           SKY/WX    TMP DP  RH WIND       PRES   REMARKS
DALTON*        CLOUDY    59  28  31 CALM      30.20S
LAWRENCEVILLE* CLEAR     55  32  41 CALM      30.23F
MARIETTA       CLOUDY    59  24  26 S8        30.22S
KENNESAW*      MOCLDY    59  27  29 S7        30.23S
$$

GAZ059>098-102>109-300100-
CENTRAL GEORGIA

CITY           SKY/WX    TMP DP  RH WIND       PRES   REMARKS
AUGUSTA-BUSH   CLEAR     52  16  24 S6        30.30F
6HR MIN TEMP:  51; 6HR MAX TEMP:  59;

AUGUSTA-DANIEL CLEAR     55  17  22 S5        30.30S
6HR MIN TEMP:  52; 6HR MAX TEMP:  60;

COLUMBUS       CLOUDY    61  32  33 SW7       30.25S
6HR MIN TEMP:  57; 6HR MAX TEMP:  64;

MACON          CLEAR     55  27  34 S6        30.28S
6HR MIN TEMP:  55; 6HR MAX TEMP:  63;

ROBINS AFB     CLEAR     57  24  28 S7        30.26F


CITY           SKY/WX    TMP DP  RH WIND       PRES   REMARKS
LAGRANGE*      CLOUDY    63  36  37 S3        30.24S
SYLVANIA*      CLEAR     51  28  41 CALM      30.33S
MILLEDGEVILLE* CLEAR     55  30  38 CALM      30.28S
$$

GAZ099>101-110>166-300100-
SOUTH GEORGIA

CITY           SKY/WX    TMP DP  RH WIND       PRES   REMARKS
SAVANNAH       CLEAR     50  27  40 S9        30.36R
6HR MIN TEMP:  50; 6HR MAX TEMP:  61;

VALDOSTA       CLEAR     55  38  52 CALM      30.30S
6HR MIN TEMP:  55; 6HR MAX TEMP:  66;

ALMA           CLEAR     53  35  50 CALM      30.31S
6HR MIN TEMP:  53; 6HR MAX TEMP:  63;

ST SIMONS      CLEAR     51  35  54 E9        30.36S
6HR MIN TEMP:  51; 6HR MAX TEMP:  56;

FT STEWART     CLEAR     51  32  47 SE6       30.33R
ALBANY         CLEAR     59  31  34 SE6       30.30F
HUNTER AFB     CLEAR     50  28  42 SE5       30.34R
MOODY AFB      CLEAR     59  33  38 CALM      30.29S
BRUNSWICK      CLEAR     52  34  50 E5        30.37S


CITY           SKY/WX    TMP DP  RH WIND       PRES   REMARKS
BAINBRIDGE*    CLEAR     64  37  36 CALM      30.29S
MOULTRIE*      CLEAR     57  37  47 E3        30.30F
VIDALIA*       CLEAR     55  28  35 CALM      30.31F
WAYCROSS*      CLEAR     60  41  50 SE6       30.32R
DOUGLAS*       CLEAR     57  34  41 CALM      30.32F
$$



USA.gov is the U.S. government's official web portal to all federal, state and local government web resources and services.